Time,TemperatureF,DewpointF,PressureIn,WindDirection,WindDirectionDegrees,WindSpeedMPH,WindSpeedGustMPH,Humidity,HourlyPrecipIn,Conditions,Clouds,dailyrainin,SoftwareType,DateUTC
2013-03-16 00:00:00,54.3,41.2,29.93,ENE,64,0.0,0.0,61,0.00,,---,0.00,VWS V14.01,2013-03-16 04:00:00,
2013-03-16 00:05:00,54.1,41.4,29.92,ENE,64,0.0,1.0,62,0.00,,---,0.00,VWS V14.01,2013-03-16 04:05:00,
2013-03-16 00:10:00,53.7,41.0,29.92,ENE,64,1.0,1.0,62,0.00,,---,0.00,VWS V14.01,2013-03-16 04:10:00,
2013-03-16 00:15:00,53.5,41.2,29.92,ENE,64,1.0,1.0,63,0.00,,---,0.00,VWS V14.01,2013-03-16 04:15:00,
2013-03-16 00:20:00,53.4,40.7,29.92,ENE,64,1.0,1.0,62,0.00,,---,0.00,VWS V14.01,2013-03-16 04:20:00,
2013-03-16 00:25:00,53.1,40.8,29.91,ENE,64,1.0,1.0,63,0.00,,---,0.00,VWS V14.01,2013-03-16 04:25:00,
2013-03-16 00:30:00,52.8,40.6,29.91,ENE,64,1.0,1.0,63,0.00,,---,0.00,VWS V14.01,2013-03-16 04:30:00,
2013-03-16 00:35:00,52.7,40.5,29.91,ENE,64,1.0,1.0,63,0.00,,---,0.00,VWS V14.01,2013-03-16 04:35:00,
2013-03-16 00:40:00,52.5,40.7,29.91,ENE,64,1.0,1.0,64,0.00,,---,0.00,VWS V14.01,2013-03-16 04:40:00,
2013-03-16 00:45:00,52.5,40.7,29.91,ENE,64,1.0,2.0,64,0.00,,---,0.00,VWS V14.01,2013-03-16 04:45:00,
2013-03-16 00:50:00,52.5,40.7,29.91,ENE,64,2.0,2.0,64,0.00,,---,0.00,VWS V14.01,2013-03-16 04:50:00,
2013-03-16 00:55:00,52.7,40.9,29.91,ENE,64,0.0,0.0,64,0.00,,---,0.00,VWS V14.01,2013-03-16 04:55:00,
2013-03-16 01:00:00,52.8,41.0,29.91,ENE,64,1.0,1.0,64,0.00,,---,0.00,VWS V14.01,2013-03-16 05:00:00,
2013-03-16 01:05:00,52.6,40.8,29.91,ENE,64,0.0,0.0,64,0.00,,---,0.00,VWS V14.01,2013-03-16 05:05:00,
2013-03-16 01:10:00,52.7,40.9,29.90,ENE,64,1.0,1.0,64,0.00,,---,0.00,VWS V14.01,2013-03-16 05:10:00,
2013-03-16 01:15:00,52.5,41.1,29.90,ENE,64,0.0,1.0,65,0.00,,---,0.00,VWS V14.01,2013-03-16 05:15:00,
2013-03-16 01:20:00,52.2,40.8,29.90,ENE,64,1.0,1.0,65,0.00,,---,0.00,VWS V14.01,2013-03-16 05:20:00,
2013-03-16 01:25:00,52.4,41.0,29.90,ENE,64,0.0,0.0,65,0.00,,---,0.00,VWS V14.01,2013-03-16 05:25:00,
2013-03-16 01:30:00,52.2,40.8,29.89,ENE,64,0.0,1.0,65,0.00,,---,0.00,VWS V14.01,2013-03-16 05:30:00,
2013-03-16 01:35:00,52.2,40.8,29.89,ENE,64,1.0,1.0,65,0.00,,---,0.00,VWS V14.01,2013-03-16 05:35:00,
2013-03-16 01:40:00,52.0,41.0,29.89,ENE,64,1.0,1.0,66,0.00,,---,0.00,VWS V14.01,2013-03-16 05:40:00,
2013-03-16 01:45:00,51.7,40.7,29.89,ENE,64,1.0,1.0,66,0.00,,---,0.00,VWS V14.01,2013-03-16 05:45:00,
2013-03-16 01:50:00,51.7,40.7,29.89,ENE,64,1.0,1.0,66,0.00,,---,0.00,VWS V14.01,2013-03-16 05:50:00,
2013-03-16 01:55:00,51.6,41.0,29.89,ENE,64,1.0,1.0,67,0.00,,---,0.00,VWS V14.01,2013-03-16 05:55:00,
2013-03-16 02:00:00,51.5,40.9,29.89,ENE,64,1.0,1.0,67,0.00,,---,0.00,VWS V14.01,2013-03-16 06:00:00,
2013-03-16 02:05:00,51.5,40.9,29.89,ENE,64,1.0,1.0,67,0.00,,---,0.00,VWS V14.01,2013-03-16 06:05:00,
2013-03-16 02:10:00,51.5,40.9,29.89,ENE,64,1.0,1.0,67,0.00,,---,0.00,VWS V14.01,2013-03-16 06:10:00,
2013-03-16 02:15:00,51.4,41.2,29.89,ENE,64,1.0,1.0,68,0.00,,---,0.00,VWS V14.01,2013-03-16 06:15:00,
2013-03-16 02:20:00,51.3,41.1,29.89,ENE,64,1.0,1.0,68,0.00,,---,0.00,VWS V14.01,2013-03-16 06:20:00,
2013-03-16 02:25:00,51.2,41.0,29.89,ENE,64,1.0,1.0,68,0.00,,---,0.00,VWS V14.01,2013-03-16 06:25:00,
2013-03-16 02:30:00,51.2,41.0,29.89,ENE,64,1.0,1.0,68,0.00,,---,0.00,VWS V14.01,2013-03-16 06:30:00,
2013-03-16 02:35:00,51.4,41.2,29.89,ENE,64,1.0,1.0,68,0.00,,---,0.00,VWS V14.01,2013-03-16 06:35:00,
2013-03-16 02:40:00,51.4,40.8,29.89,ENE,64,1.0,1.0,67,0.00,,---,0.00,VWS V14.01,2013-03-16 06:40:00,
2013-03-16 02:45:00,51.2,41.0,29.89,ENE,64,1.0,1.0,68,0.00,,---,0.00,VWS V14.01,2013-03-16 06:45:00,
2013-03-16 02:50:00,51.2,41.4,29.88,ENE,64,1.0,1.0,69,0.00,,---,0.00,VWS V14.01,2013-03-16 06:50:00,
2013-03-16 02:55:00,51.0,41.6,29.88,ENE,64,0.0,1.0,70,0.00,,---,0.00,VWS V14.01,2013-03-16 06:55:00,
2013-03-16 03:00:00,51.7,41.5,29.88,ENE,64,1.0,1.0,68,0.00,,---,0.00,VWS V14.01,2013-03-16 07:00:00,
2013-03-16 03:05:00,51.8,41.6,29.88,ENE,64,1.0,1.0,68,0.00,,---,0.00,VWS V14.01,2013-03-16 07:05:00,
2013-03-16 03:10:00,52.1,41.5,29.88,ENE,64,1.0,1.0,67,0.00,,---,0.00,VWS V14.01,2013-03-16 07:10:00,
2013-03-16 03:15:00,52.0,41.4,29.88,ENE,64,1.0,1.0,67,0.00,,---,0.00,VWS V14.01,2013-03-16 07:15:00,
2013-03-16 03:20:00,51.8,41.2,29.88,ENE,64,1.0,1.0,67,0.00,,---,0.00,VWS V14.01,2013-03-16 07:20:00,
2013-03-16 03:25:00,51.6,41.4,29.88,ENE,64,1.0,1.0,68,0.00,,---,0.00,VWS V14.01,2013-03-16 07:25:00,
2013-03-16 03:30:00,51.6,41.4,29.88,ENE,64,0.0,0.0,68,0.00,,---,0.00,VWS V14.01,2013-03-16 07:30:00,
2013-03-16 03:35:00,51.7,41.5,29.88,ENE,64,0.0,1.0,68,0.00,,---,0.00,VWS V14.01,2013-03-16 07:35:00,
2013-03-16 03:40:00,51.8,41.2,29.88,ENE,64,1.0,1.0,67,0.00,,---,0.00,VWS V14.01,2013-03-16 07:40:00,
2013-03-16 03:45:00,52.1,41.5,29.87,ENE,64,1.0,1.0,67,0.00,,---,0.00,VWS V14.01,2013-03-16 07:45:00,
2013-03-16 03:50:00,52.1,41.9,29.87,ENE,64,0.0,1.0,68,0.00,,---,0.00,VWS V14.01,2013-03-16 07:50:00,
2013-03-16 03:55:00,52.1,41.5,29.87,ENE,64,1.0,1.0,67,0.00,,---,0.00,VWS V14.01,2013-03-16 07:55:00,
2013-03-16 04:00:00,52.2,41.2,29.87,ENE,64,1.0,1.0,66,0.00,,---,0.00,VWS V14.01,2013-03-16 08:00:00,
2013-03-16 04:05:00,52.4,41.4,29.87,ENE,63,1.0,1.0,66,0.00,,---,0.00,VWS V14.01,2013-03-16 08:05:00,
2013-03-16 04:10:00,52.1,41.5,29.87,ENE,61,2.0,2.0,67,0.00,,---,0.00,VWS V14.01,2013-03-16 08:10:00,
2013-03-16 04:15:00,51.4,40.8,29.87,ENE,63,0.0,0.0,67,0.00,,---,0.00,VWS V14.01,2013-03-16 08:15:00,
2013-03-16 04:20:00,51.5,40.9,29.87,ENE,63,1.0,1.0,67,0.00,,---,0.00,VWS V14.01,2013-03-16 08:20:00,
2013-03-16 04:25:00,51.4,40.8,29.87,ENE,63,0.0,1.0,67,0.00,,---,0.00,VWS V14.01,2013-03-16 08:25:00,
2013-03-16 04:30:00,51.7,41.5,29.87,ENE,61,0.0,1.0,68,0.00,,---,0.00,VWS V14.01,2013-03-16 08:30:00,
2013-03-16 04:35:00,52.0,41.4,29.87,ENE,61,1.0,1.0,67,0.00,,---,0.00,VWS V14.01,2013-03-16 08:35:00,
2013-03-16 04:40:00,52.0,41.4,29.86,ENE,61,0.0,1.0,67,0.00,,---,0.00,VWS V14.01,2013-03-16 08:40:00,
2013-03-16 04:45:00,52.0,41.0,29.86,ENE,63,1.0,1.0,66,0.00,,---,0.00,VWS V14.01,2013-03-16 08:45:00,
2013-03-16 04:50:00,52.0,41.4,29.86,ENE,63,1.0,1.0,67,0.00,,---,0.00,VWS V14.01,2013-03-16 08:50:00,
2013-03-16 04:55:00,52.0,41.4,29.86,ENE,62,1.0,1.0,67,0.00,,---,0.00,VWS V14.01,2013-03-16 08:55:00,
2013-03-16 05:00:00,52.3,41.3,29.86,ENE,63,0.0,0.0,66,0.00,,---,0.00,VWS V14.01,2013-03-16 09:00:00,
2013-03-16 05:05:00,52.6,41.6,29.86,ENE,63,1.0,1.0,66,0.00,,---,0.00,VWS V14.01,2013-03-16 09:05:00,
2013-03-16 05:10:00,52.6,41.6,29.86,ENE,62,1.0,1.0,66,0.00,,---,0.00,VWS V14.01,2013-03-16 09:10:00,
2013-03-16 05:15:00,52.6,41.6,29.86,ENE,62,1.0,1.0,66,0.00,,---,0.00,VWS V14.01,2013-03-16 09:15:00,
2013-03-16 05:20:00,52.7,41.7,29.86,ENE,63,0.0,0.0,66,0.00,,---,0.00,VWS V14.01,2013-03-16 09:20:00,
2013-03-16 05:25:00,52.5,41.5,29.86,ENE,63,0.0,0.0,66,0.00,,---,0.00,VWS V14.01,2013-03-16 09:25:00,
2013-03-16 05:30:00,52.6,41.2,29.86,ENE,63,1.0,1.0,65,0.00,,---,0.00,VWS V14.01,2013-03-16 09:30:00,
2013-03-16 05:35:00,52.6,41.6,29.86,ENE,63,1.0,1.0,66,0.00,,---,0.00,VWS V14.01,2013-03-16 09:35:00,
2013-03-16 05:40:00,52.7,41.7,29.86,ENE,63,1.0,1.0,66,0.00,,---,0.00,VWS V14.01,2013-03-16 09:40:00,
2013-03-16 05:45:00,52.5,41.5,29.86,ENE,63,1.0,1.0,66,0.00,,---,0.00,VWS V14.01,2013-03-16 09:45:00,
2013-03-16 05:50:00,52.7,41.7,29.86,ENE,62,1.0,1.0,66,0.00,,---,0.00,VWS V14.01,2013-03-16 09:50:00,
2013-03-16 05:55:00,52.7,41.7,29.86,ENE,63,1.0,1.0,66,0.00,,---,0.00,VWS V14.01,2013-03-16 09:55:00,
2013-03-16 06:00:00,52.8,41.8,29.86,ENE,63,0.0,1.0,66,0.00,,---,0.00,VWS V14.01,2013-03-16 10:00:00,
2013-03-16 06:05:00,52.7,41.7,29.86,ENE,63,0.0,0.0,66,0.00,,---,0.00,VWS V14.01,2013-03-16 10:05:00,
2013-03-16 06:10:00,52.8,41.4,29.86,ENE,62,1.0,1.0,65,0.00,,---,0.00,VWS V14.01,2013-03-16 10:10:00,
2013-03-16 06:15:00,53.0,42.0,29.86,ENE,62,0.0,1.0,66,0.00,,---,0.00,VWS V14.01,2013-03-16 10:15:00,
2013-03-16 06:20:00,53.1,41.7,29.86,ENE,63,0.0,1.0,65,0.00,,---,0.00,VWS V14.01,2013-03-16 10:20:00,
2013-03-16 06:25:00,53.2,41.8,29.86,ENE,62,1.0,1.0,65,0.00,,---,0.00,VWS V14.01,2013-03-16 10:25:00,
2013-03-16 06:30:00,53.2,41.8,29.86,ENE,63,0.0,0.0,65,0.00,,---,0.00,VWS V14.01,2013-03-16 10:30:00,
2013-03-16 06:35:00,53.2,41.8,29.86,ENE,62,0.0,1.0,65,0.00,,---,0.00,VWS V14.01,2013-03-16 10:35:00,
2013-03-16 06:40:00,53.2,41.3,29.86,ENE,63,1.0,1.0,64,0.00,,---,0.00,VWS V14.01,2013-03-16 10:40:00,
2013-03-16 06:45:00,53.2,41.8,29.86,ENE,62,1.0,1.0,65,0.00,,---,0.00,VWS V14.01,2013-03-16 10:45:00,
2013-03-16 06:50:00,53.1,41.7,29.86,ENE,62,1.0,1.0,65,0.00,,---,0.00,VWS V14.01,2013-03-16 10:50:00,
2013-03-16 06:55:00,52.9,41.9,29.86,NE,51,2.0,2.0,66,0.00,,---,0.00,VWS V14.01,2013-03-16 10:55:00,
2013-03-16 07:00:00,52.8,41.8,29.86,NE,51,1.0,1.0,66,0.00,,---,0.00,VWS V14.01,2013-03-16 11:00:00,
2013-03-16 07:05:00,52.7,41.7,29.86,NE,51,0.0,1.0,66,0.00,,---,0.00,VWS V14.01,2013-03-16 11:05:00,
2013-03-16 07:10:00,52.7,41.3,29.86,NE,53,1.0,2.0,65,0.00,,---,0.00,VWS V14.01,2013-03-16 11:10:00,
2013-03-16 07:15:00,52.6,41.2,29.86,NE,53,0.0,0.0,65,0.00,,---,0.00,VWS V14.01,2013-03-16 11:15:00,
2013-03-16 07:20:00,52.8,41.0,29.86,NE,53,0.0,1.0,64,0.00,,---,0.00,VWS V14.01,2013-03-16 11:20:00,
2013-03-16 07:25:00,53.1,41.3,29.86,NE,53,1.0,1.0,64,0.00,,---,0.00,VWS V14.01,2013-03-16 11:25:00,
2013-03-16 07:30:00,53.4,41.5,29.86,NNE,19,0.0,0.0,64,0.00,,---,0.00,VWS V14.01,2013-03-16 11:30:00,
2013-03-16 07:35:00,53.1,41.3,29.86,ENE,58,0.0,1.0,64,0.00,,---,0.00,VWS V14.01,2013-03-16 11:35:00,
2013-03-16 07:40:00,53.0,41.2,29.86,NE,56,1.0,1.0,64,0.00,,---,0.00,VWS V14.01,2013-03-16 11:40:00,
2013-03-16 07:45:00,52.9,41.1,29.86,NE,56,0.0,0.0,64,0.00,,---,0.00,VWS V14.01,2013-03-16 11:45:00,
2013-03-16 07:50:00,52.9,41.1,29.86,NE,55,1.0,1.0,64,0.00,,---,0.00,VWS V14.01,2013-03-16 11:50:00,
2013-03-16 07:55:00,53.0,41.6,29.86,NE,56,0.0,0.0,65,0.00,,---,0.00,VWS V14.01,2013-03-16 11:55:00,
2013-03-16 08:00:00,53.1,40.8,29.86,NE,56,0.0,0.0,63,0.00,,---,0.00,VWS V14.01,2013-03-16 12:00:00,
2013-03-16 08:05:00,53.4,41.5,29.86,NE,56,1.0,1.0,64,0.00,,---,0.00,VWS V14.01,2013-03-16 12:05:00,
2013-03-16 08:10:00,53.3,41.8,29.86,NE,53,0.0,1.0,65,0.00,,---,0.00,VWS V14.01,2013-03-16 12:10:00,
2013-03-16 08:15:00,53.4,41.9,29.86,NE,53,1.0,1.0,65,0.00,,---,0.00,VWS V14.01,2013-03-16 12:15:00,
2013-03-16 08:20:00,53.6,42.1,29.86,NE,53,1.0,1.0,65,0.00,,---,0.00,VWS V14.01,2013-03-16 12:20:00,
2013-03-16 08:25:00,53.7,41.8,29.86,NE,53,1.0,1.0,64,0.00,,---,0.00,VWS V14.01,2013-03-16 12:25:00,
2013-03-16 08:30:00,53.8,41.5,29.86,NE,53,1.0,1.0,63,0.00,,---,0.00,VWS V14.01,2013-03-16 12:30:00,
2013-03-16 08:35:00,53.8,41.9,29.86,NE,53,0.0,0.0,64,0.00,,---,0.00,VWS V14.01,2013-03-16 12:35:00,
2013-03-16 08:40:00,53.6,41.3,29.86,NE,53,1.0,1.0,63,0.00,,---,0.00,VWS V14.01,2013-03-16 12:40:00,
2013-03-16 08:45:00,53.7,41.8,29.86,NE,52,1.0,1.0,64,0.00,,---,0.00,VWS V14.01,2013-03-16 12:45:00,
2013-03-16 08:50:00,53.8,42.3,29.86,NE,54,0.0,0.0,65,0.00,,---,0.00,VWS V14.01,2013-03-16 12:50:00,
2013-03-16 08:55:00,54.1,42.2,29.86,NE,54,0.0,0.0,64,0.00,,---,0.00,VWS V14.01,2013-03-16 12:55:00,
2013-03-16 09:00:00,54.5,42.6,29.86,NE,54,0.0,0.0,64,0.00,,---,0.00,VWS V14.01,2013-03-16 13:00:00,
2013-03-16 09:05:00,54.6,41.9,29.86,NE,54,0.0,0.0,62,0.00,,---,0.00,VWS V14.01,2013-03-16 13:05:00,
2013-03-16 09:10:00,55.1,41.5,29.86,NE,54,0.0,0.0,60,0.00,,---,0.00,VWS V14.01,2013-03-16 13:10:00,
2013-03-16 09:15:00,55.5,42.3,29.86,NE,54,0.0,0.0,61,0.00,,---,0.00,VWS V14.01,2013-03-16 13:15:00,
2013-03-16 09:20:00,55.7,41.6,29.86,NE,54,0.0,0.0,59,0.00,,---,0.00,VWS V14.01,2013-03-16 13:20:00,
2013-03-16 09:25:00,56.1,41.5,29.86,NE,54,0.0,0.0,58,0.00,,---,0.00,VWS V14.01,2013-03-16 13:25:00,
2013-03-16 09:30:00,56.4,41.4,29.86,NE,54,0.0,0.0,57,0.00,,---,0.00,VWS V14.01,2013-03-16 13:30:00,
2013-03-16 09:35:00,56.7,41.2,29.86,NE,54,0.0,0.0,56,0.00,,---,0.00,VWS V14.01,2013-03-16 13:35:00,
2013-03-16 09:40:00,57.0,41.5,29.86,NE,54,0.0,0.0,56,0.00,,---,0.00,VWS V14.01,2013-03-16 13:40:00,
2013-03-16 09:45:00,57.2,40.7,29.86,NE,54,0.0,0.0,54,0.00,,---,0.00,VWS V14.01,2013-03-16 13:45:00,
2013-03-16 09:50:00,57.4,40.9,29.86,NE,54,0.0,0.0,54,0.00,,---,0.00,VWS V14.01,2013-03-16 13:50:00,
2013-03-16 09:55:00,57.6,41.1,29.86,NE,54,0.0,0.0,54,0.00,,---,0.00,VWS V14.01,2013-03-16 13:55:00,
2013-03-16 10:00:00,57.9,40.4,29.86,NE,54,0.0,0.0,52,0.00,,---,0.00,VWS V14.01,2013-03-16 14:00:00,
2013-03-16 10:05:00,58.2,40.7,29.86,NE,54,0.0,0.0,52,0.00,,---,0.00,VWS V14.01,2013-03-16 14:05:00,
2013-03-16 10:10:00,58.5,41.0,29.85,ENE,58,0.0,1.0,52,0.00,,---,0.00,VWS V14.01,2013-03-16 14:10:00,
2013-03-16 10:15:00,58.8,40.7,29.85,South,189,0.0,1.0,51,0.00,,---,0.00,VWS V14.01,2013-03-16 14:15:00,
2013-03-16 10:20:00,59.0,40.9,29.85,SSE,158,0.0,0.0,51,0.00,,---,0.00,VWS V14.01,2013-03-16 14:20:00,
2013-03-16 10:25:00,59.2,42.1,29.85,WNW,285,1.0,1.0,53,0.00,,---,0.00,VWS V14.01,2013-03-16 14:25:00,
2013-03-16 10:30:00,59.4,41.8,29.85,SSE,152,2.0,2.0,52,0.00,,---,0.00,VWS V14.01,2013-03-16 14:30:00,
2013-03-16 10:35:00,59.5,40.9,29.85,SE,139,0.0,1.0,50,0.00,,---,0.00,VWS V14.01,2013-03-16 14:35:00,
2013-03-16 10:40:00,59.6,41.0,29.84,WNW,302,0.0,2.0,50,0.00,,---,0.00,VWS V14.01,2013-03-16 14:40:00,
2013-03-16 10:45:00,59.7,41.0,29.84,SSE,157,2.0,4.0,50,0.00,,---,0.00,VWS V14.01,2013-03-16 14:45:00,
2013-03-16 10:50:00,59.9,41.2,29.84,WSW,242,1.0,3.0,50,0.00,,---,0.00,VWS V14.01,2013-03-16 14:50:00,
2013-03-16 10:55:00,60.1,41.9,29.84,SSW,193,1.0,2.0,51,0.00,,---,0.00,VWS V14.01,2013-03-16 14:55:00,
2013-03-16 11:00:00,60.2,41.5,29.84,WSW,249,2.0,3.0,50,0.00,,---,0.00,VWS V14.01,2013-03-16 15:00:00,
2013-03-16 11:05:00,60.4,41.2,29.84,WNW,293,2.0,4.0,49,0.00,,---,0.00,VWS V14.01,2013-03-16 15:05:00,
2013-03-16 11:10:00,60.5,41.8,29.84,West,281,0.0,1.0,50,0.00,,---,0.00,VWS V14.01,2013-03-16 15:10:00,
2013-03-16 11:15:00,60.7,42.0,29.83,NW,316,1.0,3.0,50,0.00,,---,0.00,VWS V14.01,2013-03-16 15:15:00,
2013-03-16 11:20:00,60.8,42.1,29.83,WSW,240,0.0,1.0,50,0.00,,---,0.00,VWS V14.01,2013-03-16 15:20:00,
2013-03-16 11:25:00,61.1,42.8,29.83,WSW,238,0.0,1.0,51,0.00,,---,0.00,VWS V14.01,2013-03-16 15:25:00,
2013-03-16 11:30:00,61.9,44.1,29.82,WNW,294,1.0,2.0,52,0.00,,---,0.00,VWS V14.01,2013-03-16 15:30:00,
2013-03-16 11:35:00,62.3,43.4,29.82,WNW,292,0.0,2.0,50,0.00,,---,0.00,VWS V14.01,2013-03-16 15:35:00,
2013-03-16 11:40:00,62.4,43.5,29.82,South,172,0.0,4.0,50,0.00,,---,0.00,VWS V14.01,2013-03-16 15:40:00,
2013-03-16 11:45:00,62.9,44.0,29.82,NW,312,3.0,4.0,50,0.00,,---,0.00,VWS V14.01,2013-03-16 15:45:00,
2013-03-16 11:50:00,63.2,43.7,29.81,SE,133,1.0,4.0,49,0.00,,---,0.00,VWS V14.01,2013-03-16 15:50:00,
2013-03-16 11:55:00,63.8,44.3,29.81,South,179,2.0,6.0,49,0.00,,---,0.00,VWS V14.01,2013-03-16 15:55:00,
2013-03-16 12:00:00,64.6,44.5,29.81,SSW,207,3.0,4.0,48,0.00,,---,0.00,VWS V14.01,2013-03-16 16:00:00,
2013-03-16 12:05:00,64.9,44.2,29.81,WNW,285,1.0,6.0,47,0.00,,---,0.00,VWS V14.01,2013-03-16 16:05:00,
2013-03-16 12:10:00,65.3,44.6,29.80,SW,235,1.0,5.0,47,0.00,,---,0.00,VWS V14.01,2013-03-16 16:10:00,
2013-03-16 12:15:00,65.7,43.8,29.80,SSE,153,6.0,9.0,45,0.00,,---,0.00,VWS V14.01,2013-03-16 16:15:00,
2013-03-16 12:20:00,65.4,43.5,29.80,SSE,167,5.0,8.0,45,0.00,,---,0.00,VWS V14.01,2013-03-16 16:20:00,
2013-03-16 12:25:00,65.9,44.6,29.80,SSE,147,2.0,9.0,46,0.00,,---,0.00,VWS V14.01,2013-03-16 16:25:00,
2013-03-16 12:30:00,65.9,43.4,29.80,SE,127,3.0,7.0,44,0.00,,---,0.00,VWS V14.01,2013-03-16 16:30:00,
2013-03-16 12:35:00,65.6,43.7,29.79,South,186,1.0,5.0,45,0.00,,---,0.00,VWS V14.01,2013-03-16 16:35:00,
2013-03-16 12:40:00,65.9,44.0,29.80,SSE,158,5.0,10.0,45,0.00,,---,0.00,VWS V14.01,2013-03-16 16:40:00,
2013-03-16 12:45:00,66.1,44.2,29.79,SSE,163,2.0,7.0,45,0.00,,---,0.00,VWS V14.01,2013-03-16 16:45:00,
2013-03-16 12:50:00,66.5,43.9,29.79,NW,322,2.0,4.0,44,0.00,,---,0.00,VWS V14.01,2013-03-16 16:50:00,
2013-03-16 12:55:00,66.8,44.2,29.78,ENE,75,4.0,4.0,44,0.00,,---,0.00,VWS V14.01,2013-03-16 16:55:00,
2013-03-16 13:00:00,67.2,44.0,29.78,SE,134,4.0,8.0,43,0.00,,---,0.00,VWS V14.01,2013-03-16 17:00:00,
2013-03-16 13:05:00,67.3,44.1,29.78,WNW,302,5.0,5.0,43,0.00,,---,0.00,VWS V14.01,2013-03-16 17:05:00,
2013-03-16 13:10:00,67.4,44.2,29.79,SE,136,6.0,8.0,43,0.00,,---,0.00,VWS V14.01,2013-03-16 17:10:00,
2013-03-16 13:15:00,67.3,43.5,29.78,SW,228,4.0,4.0,42,0.00,,---,0.00,VWS V14.01,2013-03-16 17:15:00,
2013-03-16 13:20:00,68.0,44.7,29.77,SSE,163,8.0,8.0,43,0.00,,---,0.00,VWS V14.01,2013-03-16 17:20:00,
2013-03-16 13:25:00,68.8,44.2,29.77,SW,216,5.0,6.0,41,0.00,,---,0.00,VWS V14.01,2013-03-16 17:25:00,
2013-03-16 13:30:00,68.9,43.6,29.77,East,91,2.0,11.0,40,0.00,,---,0.00,VWS V14.01,2013-03-16 17:30:00,
2013-03-16 13:35:00,69.1,44.4,29.77,West,277,3.0,5.0,41,0.00,,---,0.00,VWS V14.01,2013-03-16 17:35:00,
2013-03-16 13:40:00,69.4,43.4,29.77,NNE,26,2.0,8.0,39,0.00,,---,0.00,VWS V14.01,2013-03-16 17:40:00,
2013-03-16 13:45:00,69.4,44.1,29.77,SE,131,4.0,6.0,40,0.00,,---,0.00,VWS V14.01,2013-03-16 17:45:00,
2013-03-16 13:50:00,69.7,43.7,29.77,SE,134,3.0,8.0,39,0.00,,---,0.00,VWS V14.01,2013-03-16 17:50:00,
2013-03-16 13:55:00,69.6,43.6,29.76,ESE,108,7.0,8.0,39,0.00,,---,0.00,VWS V14.01,2013-03-16 17:55:00,
2013-03-16 14:00:00,69.5,43.5,29.76,SE,126,2.0,7.0,39,0.00,,---,0.00,VWS V14.01,2013-03-16 18:00:00,
2013-03-16 14:05:00,69.6,44.2,29.76,SW,235,0.0,1.0,40,0.00,,---,0.00,VWS V14.01,2013-03-16 18:05:00,
2013-03-16 14:10:00,70.2,44.8,29.76,NE,56,6.0,8.0,40,0.00,,---,0.00,VWS V14.01,2013-03-16 18:10:00,
2013-03-16 14:15:00,70.0,43.2,29.76,SE,131,0.0,1.0,38,0.00,,---,0.00,VWS V14.01,2013-03-16 18:15:00,
2013-03-16 14:20:00,70.1,44.0,29.75,ESE,113,2.0,2.0,39,0.00,,---,0.00,VWS V14.01,2013-03-16 18:20:00,
2013-03-16 14:25:00,69.8,43.8,29.75,SSE,157,2.0,4.0,39,0.00,,---,0.00,VWS V14.01,2013-03-16 18:25:00,
2013-03-16 14:30:00,69.7,43.7,29.75,SE,136,2.0,3.0,39,0.00,,---,0.00,VWS V14.01,2013-03-16 18:30:00,
2013-03-16 14:35:00,69.4,44.1,29.75,NNW,342,1.0,1.0,40,0.00,,---,0.00,VWS V14.01,2013-03-16 18:35:00,
2013-03-16 14:40:00,69.2,43.9,29.75,West,280,5.0,7.0,40,0.00,,---,0.00,VWS V14.01,2013-03-16 18:40:00,
2013-03-16 14:45:00,68.6,43.3,29.75,NE,49,6.0,6.0,40,0.00,,---,0.00,VWS V14.01,2013-03-16 18:45:00,
2013-03-16 14:50:00,68.2,43.6,29.74,SE,143,1.0,1.0,41,0.00,,---,0.00,VWS V14.01,2013-03-16 18:50:00,
2013-03-16 14:55:00,68.3,43.7,29.74,ESE,113,6.0,6.0,41,0.00,,---,0.00,VWS V14.01,2013-03-16 18:55:00,
2013-03-16 15:00:00,68.9,44.2,29.74,NE,43,1.0,3.0,41,0.00,,---,0.00,VWS V14.01,2013-03-16 19:00:00,
2013-03-16 15:05:00,69.0,44.3,29.74,SE,139,1.0,3.0,41,0.00,,---,0.00,VWS V14.01,2013-03-16 19:05:00,
2013-03-16 15:10:00,69.7,44.3,29.73,NNE,27,2.0,9.0,40,0.00,,---,0.00,VWS V14.01,2013-03-16 19:10:00,
2013-03-16 15:15:00,70.2,44.1,29.73,ESE,108,2.0,3.0,39,0.00,,---,0.00,VWS V14.01,2013-03-16 19:15:00,
2013-03-16 15:20:00,71.4,45.2,29.73,NNW,339,1.0,2.0,39,0.00,,---,0.00,VWS V14.01,2013-03-16 19:20:00,
2013-03-16 15:25:00,72.4,44.7,29.73,WSW,249,2.0,7.0,37,0.00,,---,0.00,VWS V14.01,2013-03-16 19:25:00,
2013-03-16 15:30:00,73.2,45.4,29.73,SE,134,0.0,1.0,37,0.00,,---,0.00,VWS V14.01,2013-03-16 19:30:00,
2013-03-16 15:35:00,74.1,44.7,29.72,North,360,7.0,7.0,35,0.00,,---,0.00,VWS V14.01,2013-03-16 19:35:00,
2013-03-16 15:40:00,73.5,44.2,29.72,NE,40,4.0,5.0,35,0.00,,---,0.00,VWS V14.01,2013-03-16 19:40:00,
2013-03-16 15:45:00,73.0,44.5,29.72,WNW,299,2.0,2.0,36,0.00,,---,0.00,VWS V14.01,2013-03-16 19:45:00,
2013-03-16 15:50:00,72.9,43.7,29.72,SSE,149,1.0,2.0,35,0.00,,---,0.00,VWS V14.01,2013-03-16 19:50:00,
2013-03-16 15:55:00,73.1,43.8,29.72,ESE,120,3.0,5.0,35,0.00,,---,0.00,VWS V14.01,2013-03-16 19:55:00,
2013-03-16 16:00:00,73.0,45.2,29.72,NNE,15,2.0,6.0,37,0.00,,---,0.00,VWS V14.01,2013-03-16 20:00:00,
2013-03-16 16:05:00,72.9,44.4,29.72,NE,39,5.0,7.0,36,0.00,,---,0.00,VWS V14.01,2013-03-16 20:05:00,
2013-03-16 16:10:00,72.8,44.3,29.72,SSW,211,1.0,6.0,36,0.00,,---,0.00,VWS V14.01,2013-03-16 20:10:00,
2013-03-16 16:15:00,73.0,44.5,29.72,ESE,122,3.0,5.0,36,0.00,,---,0.00,VWS V14.01,2013-03-16 20:15:00,
2013-03-16 16:20:00,72.6,44.9,29.73,WNW,290,4.0,6.0,37,0.00,,---,0.00,VWS V14.01,2013-03-16 20:20:00,
2013-03-16 16:25:00,73.6,45.8,29.72,NW,323,1.0,2.0,37,0.00,,---,0.00,VWS V14.01,2013-03-16 20:25:00,
2013-03-16 16:30:00,74.4,45.0,29.72,ENE,72,4.0,7.0,35,0.00,,---,0.00,VWS V14.01,2013-03-16 20:30:00,
2013-03-16 16:35:00,73.8,44.5,29.72,West,267,5.0,5.0,35,0.00,,---,0.00,VWS V14.01,2013-03-16 20:35:00,
2013-03-16 16:40:00,73.4,44.8,29.72,WNW,302,1.0,5.0,36,0.00,,---,0.00,VWS V14.01,2013-03-16 20:40:00,
2013-03-16 16:45:00,73.2,43.9,29.72,East,89,6.0,6.0,35,0.00,,---,0.00,VWS V14.01,2013-03-16 20:45:00,
2013-03-16 16:50:00,72.9,43.7,29.72,ESE,113,0.0,4.0,35,0.00,,---,0.00,VWS V14.01,2013-03-16 20:50:00,
2013-03-16 16:55:00,73.1,45.3,29.72,SW,224,2.0,3.0,37,0.00,,---,0.00,VWS V14.01,2013-03-16 20:55:00,
2013-03-16 17:00:00,73.2,46.1,29.72,WSW,241,1.0,2.0,38,0.00,,---,0.00,VWS V14.01,2013-03-16 21:00:00,
2013-03-16 17:05:00,74.1,45.5,29.71,SSE,162,2.0,2.0,36,0.00,,---,0.00,VWS V14.01,2013-03-16 21:05:00,
2013-03-16 17:10:00,73.9,44.5,29.71,WSW,250,3.0,3.0,35,0.00,,---,0.00,VWS V14.01,2013-03-16 21:10:00,
2013-03-16 17:15:00,73.9,44.5,29.71,WSW,250,3.0,4.0,35,0.00,,---,0.00,VWS V14.01,2013-03-16 21:15:00,
2013-03-16 17:20:00,74.2,44.1,29.71,East,84,2.0,3.0,34,0.00,,---,0.00,VWS V14.01,2013-03-16 21:20:00,
2013-03-16 17:25:00,75.0,44.0,29.71,SE,131,1.0,1.0,33,0.00,,---,0.00,VWS V14.01,2013-03-16 21:25:00,
2013-03-16 17:30:00,75.1,43.3,29.71,North,6,1.0,2.0,32,0.00,,---,0.00,VWS V14.01,2013-03-16 21:30:00,
2013-03-16 17:35:00,74.6,42.8,29.70,SW,223,1.0,3.0,32,0.00,,---,0.00,VWS V14.01,2013-03-16 21:35:00,
2013-03-16 17:40:00,73.7,42.8,29.71,SSE,149,7.0,7.0,33,0.00,,---,0.00,VWS V14.01,2013-03-16 21:40:00,
2013-03-16 17:45:00,73.6,42.8,29.71,SW,232,2.0,2.0,33,0.00,,---,0.00,VWS V14.01,2013-03-16 21:45:00,
2013-03-16 17:50:00,74.0,43.1,29.71,West,277,1.0,1.0,33,0.00,,---,0.00,VWS V14.01,2013-03-16 21:50:00,
2013-03-16 17:55:00,73.7,42.8,29.71,NE,40,1.0,5.0,33,0.00,,---,0.00,VWS V14.01,2013-03-16 21:55:00,
2013-03-16 18:00:00,72.8,43.6,29.72,SE,136,1.0,3.0,35,0.00,,---,0.00,VWS V14.01,2013-03-16 22:00:00,
2013-03-16 18:05:00,72.6,41.9,29.72,WSW,240,1.0,2.0,33,0.00,,---,0.00,VWS V14.01,2013-03-16 22:05:00,
2013-03-16 18:10:00,71.8,42.7,29.72,ENE,58,2.0,4.0,35,0.00,,---,0.00,VWS V14.01,2013-03-16 22:10:00,
2013-03-16 18:15:00,71.2,42.2,29.72,SE,134,5.0,6.0,35,0.00,,---,0.00,VWS V14.01,2013-03-16 22:15:00,
2013-03-16 18:20:00,70.9,41.9,29.72,East,98,1.0,7.0,35,0.00,,---,0.00,VWS V14.01,2013-03-16 22:20:00,
2013-03-16 18:25:00,70.5,42.3,29.73,SE,132,1.0,4.0,36,0.00,,---,0.00,VWS V14.01,2013-03-16 22:25:00,
2013-03-16 18:30:00,70.2,42.7,29.73,SE,141,1.0,6.0,37,0.00,,---,0.00,VWS V14.01,2013-03-16 22:30:00,
2013-03-16 18:35:00,69.7,43.0,29.73,East,82,4.0,5.0,38,0.00,,---,0.00,VWS V14.01,2013-03-16 22:35:00,
2013-03-16 18:40:00,69.0,43.0,29.73,East,94,2.0,2.0,39,0.00,,---,0.00,VWS V14.01,2013-03-16 22:40:00,
2013-03-16 18:45:00,68.5,43.2,29.74,NNE,20,4.0,6.0,40,0.00,,---,0.00,VWS V14.01,2013-03-16 22:45:00,
2013-03-16 18:50:00,68.1,43.5,29.74,North,349,2.0,10.0,41,0.00,,---,0.00,VWS V14.01,2013-03-16 22:50:00,
2013-03-16 18:55:00,67.9,43.4,29.75,ESE,108,4.0,4.0,41,0.00,,---,0.00,VWS V14.01,2013-03-16 22:55:00,
2013-03-16 19:00:00,67.6,43.7,29.75,ESE,120,5.0,5.0,42,0.00,,---,0.00,VWS V14.01,2013-03-16 23:00:00,
2013-03-16 19:05:00,67.2,44.0,29.75,ENE,77,3.0,6.0,43,0.00,,---,0.00,VWS V14.01,2013-03-16 23:05:00,
2013-03-16 19:10:00,66.9,43.7,29.76,SSE,159,5.0,5.0,43,0.00,,---,0.00,VWS V14.01,2013-03-16 23:10:00,
2013-03-16 19:15:00,66.6,44.0,29.76,NE,39,8.0,8.0,44,0.00,,---,0.00,VWS V14.01,2013-03-16 23:15:00,
2013-03-16 19:20:00,66.3,44.3,29.76,ESE,114,2.0,2.0,45,0.00,,---,0.00,VWS V14.01,2013-03-16 23:20:00,
2013-03-16 19:25:00,66.0,44.1,29.76,SE,124,2.0,4.0,45,0.00,,---,0.00,VWS V14.01,2013-03-16 23:25:00,
2013-03-16 19:30:00,65.9,44.6,29.77,NE,44,4.0,4.0,46,0.00,,---,0.00,VWS V14.01,2013-03-16 23:30:00,
2013-03-16 19:35:00,65.8,44.5,29.77,SE,129,1.0,2.0,46,0.00,,---,0.00,VWS V14.01,2013-03-16 23:35:00,
2013-03-16 19:40:00,65.5,44.2,29.77,ESE,122,3.0,4.0,46,0.00,,---,0.00,VWS V14.01,2013-03-16 23:40:00,
2013-03-16 19:45:00,65.4,44.1,29.77,ESE,104,2.0,2.0,46,0.00,,---,0.00,VWS V14.01,2013-03-16 23:45:00,
2013-03-16 19:50:00,65.0,44.3,29.78,South,180,1.0,4.0,47,0.00,,---,0.00,VWS V14.01,2013-03-16 23:50:00,
2013-03-16 19:55:00,64.8,44.7,29.78,ENE,72,3.0,4.0,48,0.00,,---,0.00,VWS V14.01,2013-03-16 23:55:00,
2013-03-16 20:00:00,64.8,44.7,29.79,ESE,115,1.0,2.0,48,0.00,,---,0.00,VWS V14.01,2013-03-17 00:00:00,
2013-03-16 20:05:00,64.7,45.1,29.79,NE,47,1.0,2.0,49,0.00,,---,0.00,VWS V14.01,2013-03-17 00:05:00,
2013-03-16 20:10:00,64.7,44.6,29.79,ENE,74,3.0,3.0,48,0.00,,---,0.00,VWS V14.01,2013-03-17 00:10:00,
2013-03-16 20:15:00,64.7,44.6,29.80,NE,47,1.0,1.0,48,0.00,,---,0.00,VWS V14.01,2013-03-17 00:15:00,
2013-03-16 20:20:00,64.7,45.1,29.80,East,91,0.0,0.0,49,0.00,,---,0.00,VWS V14.01,2013-03-17 00:20:00,
2013-03-16 20:25:00,64.5,44.9,29.80,East,91,0.0,0.0,49,0.00,,---,0.00,VWS V14.01,2013-03-17 00:25:00,
2013-03-16 20:30:00,64.1,45.1,29.80,SE,129,1.0,1.0,50,0.00,,---,0.00,VWS V14.01,2013-03-17 00:30:00,
2013-03-16 20:35:00,64.0,45.0,29.80,ESE,121,0.0,1.0,50,0.00,,---,0.00,VWS V14.01,2013-03-17 00:35:00,
2013-03-16 20:40:00,64.1,45.1,29.80,ESE,120,0.0,0.0,50,0.00,,---,0.00,VWS V14.01,2013-03-17 00:40:00,
2013-03-16 20:45:00,64.1,45.1,29.80,East,88,1.0,2.0,50,0.00,,---,0.00,VWS V14.01,2013-03-17 00:45:00,
2013-03-16 20:50:00,64.1,45.6,29.81,NE,49,3.0,3.0,51,0.00,,---,0.00,VWS V14.01,2013-03-17 00:50:00,
2013-03-16 20:55:00,64.1,45.1,29.81,ESE,102,2.0,4.0,50,0.00,,---,0.00,VWS V14.01,2013-03-17 00:55:00,
2013-03-16 21:00:00,64.1,45.1,29.81,SSE,160,0.0,2.0,50,0.00,,---,0.00,VWS V14.01,2013-03-17 01:00:00,
2013-03-16 21:05:00,64.1,45.6,29.81,ESE,105,2.0,2.0,51,0.00,,---,0.00,VWS V14.01,2013-03-17 01:05:00,
2013-03-16 21:10:00,63.9,45.4,29.81,NNE,13,0.0,1.0,51,0.00,,---,0.00,VWS V14.01,2013-03-17 01:10:00,
2013-03-16 21:15:00,63.6,45.7,29.81,NNE,13,1.0,1.0,52,0.00,,---,0.00,VWS V14.01,2013-03-17 01:15:00,
2013-03-16 21:20:00,63.2,45.3,29.82,NE,48,3.0,5.0,52,0.00,,---,0.00,VWS V14.01,2013-03-17 01:20:00,
2013-03-16 21:25:00,63.3,45.9,29.82,SSW,193,0.0,1.0,53,0.00,,---,0.00,VWS V14.01,2013-03-17 01:25:00,
2013-03-16 21:30:00,63.2,45.3,29.82,SSW,204,1.0,1.0,52,0.00,,---,0.00,VWS V14.01,2013-03-17 01:30:00,
2013-03-16 21:35:00,62.9,45.5,29.82,ESE,122,1.0,1.0,53,0.00,,---,0.00,VWS V14.01,2013-03-17 01:35:00,
2013-03-16 21:40:00,62.4,46.0,29.82,ESE,123,1.0,1.0,55,0.00,,---,0.00,VWS V14.01,2013-03-17 01:40:00,
2013-03-16 21:45:00,62.2,45.8,29.82,ESE,116,0.0,1.0,55,0.00,,---,0.00,VWS V14.01,2013-03-17 01:45:00,
2013-03-16 21:50:00,62.0,45.7,29.82,ESE,117,0.0,0.0,55,0.00,,---,0.00,VWS V14.01,2013-03-17 01:50:00,
2013-03-16 21:55:00,61.9,45.6,29.83,ESE,117,0.0,1.0,55,0.00,,---,0.00,VWS V14.01,2013-03-17 01:55:00,
2013-03-16 22:00:00,62.0,45.2,29.82,ESE,117,1.0,1.0,54,0.00,,---,0.00,VWS V14.01,2013-03-17 02:00:00,
2013-03-16 22:05:00,62.0,46.1,29.83,ESE,116,0.0,1.0,56,0.00,,---,0.00,VWS V14.01,2013-03-17 02:05:00,
2013-03-16 22:10:00,61.7,45.4,29.83,SSE,149,0.0,1.0,55,0.00,,---,0.00,VWS V14.01,2013-03-17 02:10:00,
2013-03-16 22:15:00,61.8,45.5,29.83,SE,125,1.0,1.0,55,0.00,,---,0.00,VWS V14.01,2013-03-17 02:15:00,
2013-03-16 22:20:00,61.6,45.8,29.83,North,4,1.0,1.0,56,0.00,,---,0.00,VWS V14.01,2013-03-17 02:20:00,
2013-03-16 22:25:00,61.6,45.3,29.83,ENE,58,0.0,0.0,55,0.00,,---,0.00,VWS V14.01,2013-03-17 02:25:00,
2013-03-16 22:30:00,61.6,45.8,29.84,ENE,58,0.0,0.0,56,0.00,,---,0.00,VWS V14.01,2013-03-17 02:30:00,
2013-03-16 22:35:00,61.2,45.9,29.84,ENE,66,1.0,1.0,57,0.00,,---,0.00,VWS V14.01,2013-03-17 02:35:00,
2013-03-16 22:40:00,61.1,45.3,29.84,ESE,115,0.0,1.0,56,0.00,,---,0.00,VWS V14.01,2013-03-17 02:40:00,
2013-03-16 22:45:00,60.9,45.6,29.84,ESE,116,1.0,1.0,57,0.00,,---,0.00,VWS V14.01,2013-03-17 02:45:00,
2013-03-16 22:50:00,60.3,45.0,29.84,East,95,1.0,1.0,57,0.00,,---,0.00,VWS V14.01,2013-03-17 02:50:00,
2013-03-16 22:55:00,59.8,45.0,29.84,ENE,74,1.0,1.0,58,0.00,,---,0.00,VWS V14.01,2013-03-17 02:55:00,
2013-03-16 23:00:00,59.9,45.1,29.84,ENE,74,0.0,0.0,58,0.00,,---,0.00,VWS V14.01,2013-03-17 03:00:00,
2013-03-16 23:05:00,59.9,45.5,29.84,ENE,74,1.0,1.0,59,0.00,,---,0.00,VWS V14.01,2013-03-17 03:05:00,
2013-03-16 23:10:00,59.6,44.8,29.84,ENE,74,2.0,2.0,58,0.00,,---,0.00,VWS V14.01,2013-03-17 03:10:00,
2013-03-16 23:15:00,59.3,45.0,29.84,NW,307,1.0,2.0,59,0.00,,---,0.00,VWS V14.01,2013-03-17 03:15:00,
2013-03-16 23:20:00,59.4,44.6,29.84,North,351,0.0,1.0,58,0.00,,---,0.00,VWS V14.01,2013-03-17 03:20:00,
2013-03-16 23:25:00,59.4,45.1,29.84,North,351,0.0,0.0,59,0.00,,---,0.00,VWS V14.01,2013-03-17 03:25:00,
2013-03-16 23:30:00,59.5,45.2,29.84,East,99,2.0,2.0,59,0.00,,---,0.00,VWS V14.01,2013-03-17 03:30:00,
2013-03-16 23:35:00,59.2,44.9,29.84,ENE,71,2.0,2.0,59,0.00,,---,0.00,VWS V14.01,2013-03-17 03:35:00,
2013-03-16 23:40:00,59.9,44.7,29.84,SE,126,2.0,2.0,57,0.00,,---,0.00,VWS V14.01,2013-03-17 03:40:00,
2013-03-16 23:45:00,60.1,44.8,29.84,ENE,72,2.0,5.0,57,0.00,,---,0.00,VWS V14.01,2013-03-17 03:45:00,
2013-03-16 23:50:00,60.8,44.5,29.84,East,96,1.0,2.0,55,0.00,,---,0.00,VWS V14.01,2013-03-17 03:50:00,
2013-03-16 23:55:00,60.6,44.4,29.84,SE,131,2.0,2.0,55,0.00,,---,0.00,VWS V14.01,2013-03-17 03:55:00,